This demonstration page uses our WeatherBlox Daily Observations layout. Learn more.

41.55636, -103.73856

Hourly Observations for May 31, 2015

Temp ( °F °C ) Dew Point ( °F °C ) Humidity (%) Winds ( mph kmh ) Pressure ( in mb ) Visibility ( mi km ) Precip ( " mm )
12:53 am 00:53 Clear 52 11 45 7 77 77 ESE 16 26 30.03 1017 10 16.09344 0 0
1:53 am 01:53 Clear 48 9 43 6 82 82 ESE 15 24 30.06 1018 10 16.09344 0 0
2:53 am 02:53 Clear 48 9 43 6 82 82 E 14 22 30.03 1017 10 16.09344 0 0
3:53 am 03:53 Mostly Clear 48 9 45 7 87 87 ESE 12 19 30 1016 10 16.09344 0 0
4:53 am 04:53 Mostly Cloudy 48 9 45 7 87 87 E 9 15 30 1016 10 16.09344 0 0
5:53 am 05:53 Sunny 48 9 45 7 87 87 ESE 12 19 29.97 1015 10 16.09344 0 0
6:53 am 06:53 Sunny 50 10 46 8 88 88 E 10 17 29.94 1014 10 16.09344 0 0
7:53 am 07:53 Sunny 55 13 48 9 77 77 E 7 11 29.91 1013 10 16.09344 0 0
8:53 am 08:53 Sunny 63 17 52 11 68 68 W 8 13 29.88 1012 10 16.09344 0 0
9:53 am 09:53 Sunny 64 18 54 12 68 68 WNW 9 15 29.88 1012 10 16.09344 0 0
10:53 am 10:53 Sunny 72 22 55 13 57 57 W 5 7 29.83 1010 10 16.09344 0 0
11:53 am 11:53 Sunny 79 26 57 14 48 48 N 7 11 29.77 1008 10 16.09344 0 0
12:53 pm 12:53 Sunny 81 27 54 12 39 39 NW 14 22 29.71 1006 10 16.09344 0 0
1:53 pm 13:53 Sunny 81 27 54 12 39 39 NNW 16 26 29.71 1006 10 16.09344 0 0
2:53 pm 14:53 Sunny 82 28 54 12 37 37 N 14 22 29.71 1006 10 16.09344 0 0
3:53 pm 15:53 Sunny 81 27 54 12 39 39 N 12 19 29.68 1005 10 16.09344 0 0
4:53 pm 16:53 Sunny 81 27 52 11 37 37 NNE 15 24 29.68 1005 10 16.09344 0 0
5:53 pm 17:53 Sunny 77 25 52 11 42 42 NNE 8 13 29.74 1007 10 16.09344 0 0
6:53 pm 18:53 Sunny 75 24 52 11 44 44 E 12 19 29.77 1008 10 16.09344 0 0
7:53 pm 19:53 Sunny 72 22 54 12 53 53 E 7 11 29.8 1009 10 16.09344 0 0
8:53 pm 20:53 Clear 66 19 55 13 68 68 ENE 6 9 29.85 1011 10 16.09344 0 0
9:53 pm 21:53 Clear 63 17 55 13 77 77 Calm 29.88 1012 10 16.09344 0 0
10:53 pm 22:53 Mostly Clear 63 17 54 12 73 73 ENE 3 6 29.88 1012 10 16.09344 0 0
11:53 pm 23:53 Clear 61 16 54 12 77 77 NE 5 7 29.91 1013 10 16.09344 0 0

Powered by AerisWeather